This is the latest recevied weather packets stored in our database for station/object DC0VZ-6. If no packets are shown the sender has not sent any weather packets the latest 10 day(s).
| Time | Temp. | Humidity | Pressure | Rain* | Wind** | Luminosity | Snow |
|---|---|---|---|---|---|---|---|
| 1777919770 | 15.56° C | 32% | 981.6 hPa | 0 mm | - | - | - |
| 1777919169 | 15.56° C | 31% | 981.6 hPa | 0 mm | - | - | - |
| 1777918570 | 15.56° C | 30% | 981.3 hPa | 0 mm | - | - | - |
| 1777917969 | 16.11° C | 30% | 981.3 hPa | 0 mm | - | - | - |
| 1777917369 | 16.11° C | 31% | 981.5 hPa | 0 mm | - | - | - |
| 1777916769 | 16.11° C | 31% | 981.5 hPa | 0 mm | - | - | - |
| 1777916169 | 16.11° C | 30% | 981.4 hPa | 0 mm | - | - | - |
| 1777915574 | 16.11° C | 30% | 981.4 hPa | 0 mm | - | - | - |
| 1777914974 | 16.67° C | 28% | 981.6 hPa | 0 mm | - | - | - |
| 1777914374 | 16.11° C | 27% | 981.6 hPa | 0 mm | - | - | - |
| 1777913774 | 16.11° C | 26% | 981.8 hPa | 0 mm | - | - | - |
| 1777913174 | 15.56° C | 24% | 981.8 hPa | 0 mm | - | - | - |
| 1777912574 | 15.56° C | 24% | 981.8 hPa | 0 mm | - | - | - |
| 1777911973 | 16.11° C | 23% | 981.8 hPa | 0 mm | - | - | - |
| 1777911374 | 16.67° C | 23% | 981.7 hPa | 0 mm | - | - | - |
| 1777910773 | 16.67° C | 23% | 981.7 hPa | 0 mm | - | - | - |
| 1777910173 | 17.22° C | 22% | 981.7 hPa | 0 mm | - | - | - |
| 1777909573 | 17.22° C | 22% | 981.7 hPa | 0 mm | - | - | - |
| 1777908973 | 17.78° C | 22% | 981.6 hPa | 0 mm | - | - | - |
| 1777908373 | 17.78° C | 22% | 981.6 hPa | 0 mm | - | - | - |
| 1777907773 | 18.33° C | 21% | 981.4 hPa | 0 mm | - | - | - |
| 1777907173 | 18.89° C | 21% | 981.4 hPa | 0 mm | - | - | - |
| 1777906573 | 19.44° C | 21% | 981.8 hPa | 0 mm | - | - | - |
| 1777905973 | 19.44° C | 22% | 981.8 hPa | 0 mm | - | - | - |
| 1777905373 | 20° C | 21% | 981.9 hPa | 0 mm | - | - | - |
* Rain latest hour (hover to see other rain measurements)
** Current wind speed in m/s (hover to see current wind gust speed)